, AK

(GMT )
Annette Island

Weather History for PANT - January, 2013

Change the Weather History Date:

Friday, January 11, 2013

  Actual Average Record
Temperature  
Mean Temperature 34 °F 37 °F  
Max Temperature 36 °F 41 °F 53 °F (1981)
Min Temperature 31 °F 32 °F 8 °F (1998)
Degree Days  
Heating Degree Days 31 28  
Month to date heating degree days 291 308  
Since 1 July heating degree days 3334 3219  
Cooling Degree Days 0    
Month to date cooling degree days 0  
Year to date cooling degree days 0  
Moisture  
Dew Point 29 °F    
Average Humidity 0    
Maximum Humidity 0    
Minimum Humidity 0    
Precipitation  
Precipitation T in 0.34 in 1.50 in (1965)
Month to date precipitation 3.57 3.83  
Year to date precipitation 3.57 3.83  
Snow  
Snow T in 0.30 in 7.50 in (1974)
Month to date snowfall T 2.9  
Since 1 July snowfall 11.4 14.6  
Snow Depth 0.00 in    
Sea Level Pressure  
Sea Level Pressure 30.27 in    
Wind  
Wind Speed 1 mph (SE)    
Max Wind Speed 7 mph    
Max Gust Speed 10 mph    
Visibility 10 miles    
Events Snow    
T = Trace of Precipitation, MM = Missing Value Source: NWS Daily Summary

Daily Weather History Graph

Daily Weather History Graph

Search for Another Location

Airport or City:

Trip Planner

Search our weather history database for the weather conditions in past years. The results will help you decide how hot, cold, wet, or windy it might be!

Date:

Astronomy

Jan. 11, 2013 Rise Set
Actual Time 8:05 AM AKST 3:43 PM AKST
Civil Twilight 7:21 AM AKST 4:27 PM AKST
Nautical Twilight 6:35 AM AKST 5:13 PM AKST
Astronomical Twilight 5:51 AM AKST 5:57 PM AKST
Moon 7:35 AM AKST (1/11) 4:21 PM AKST (1/11)
Length of Visible Light 9h 05m
Length of Day
7h 38m
New Moon, 0% of the Moon is Illuminated
Jan 11
New Moon
Jan 18
First Quarter
Jan 26
Full
Feb 3
Last Quarter
Feb 9
New

Hourly Weather History & Observations

Time (AKST) Temp. Windchill Dew Point Humidity Pressure Visibility Wind Dir Wind Speed Gust Speed Precip Events Conditions
12:53 AM 34.0 °F - 30.0 °F 85% 30.30 in 10.0 mi Calm Calm - N/A   Overcast
1:53 AM 33.1 °F - 30.0 °F 89% 30.31 in 10.0 mi Calm Calm - N/A   Overcast
3:53 AM 33.1 °F - 28.9 °F 85% 30.29 in 10.0 mi Calm Calm - N/A   Overcast
4:06 AM 33.8 °F 30.8 °F 30.2 °F 87% 30.28 in 10.0 mi SE 3.5 mph - N/A   Overcast
4:25 AM 33.8 °F 30.8 °F 30.2 °F 87% 30.28 in 10.0 mi ESE 3.5 mph - N/A   Overcast
4:53 AM 33.1 °F - 30.0 °F 89% 30.28 in 10.0 mi Calm Calm - N/A   Overcast
5:53 AM 33.1 °F - 30.0 °F 89% 30.27 in 10.0 mi Calm Calm - N/A   Overcast
6:48 AM 33.8 °F 29.6 °F 30.2 °F 87% 30.26 in 10.0 mi SE 4.6 mph - N/A   Overcast
6:53 AM 33.1 °F 28.7 °F 30.0 °F 89% 30.27 in 10.0 mi SE 4.6 mph - N/A   Overcast
7:16 AM 32.0 °F - 30.2 °F 93% 30.26 in 10.0 mi Calm Calm - N/A   Overcast
7:53 AM 32.0 °F - 28.9 °F 88% 30.26 in 10.0 mi Calm Calm - N/A   Mostly Cloudy
8:12 AM 32.0 °F - 30.2 °F 93% 30.25 in 10.0 mi Calm Calm - N/A   Mostly Cloudy
8:53 AM 33.1 °F - 30.0 °F 89% 30.26 in 10.0 mi Calm Calm - N/A   Overcast
9:19 AM 33.8 °F - 28.4 °F 81% 30.26 in 10.0 mi Calm Calm - N/A   Overcast
9:53 AM 33.1 °F - 28.9 °F 85% 30.27 in 10.0 mi Calm Calm - N/A   Overcast
11:53 AM 34.0 °F - 30.0 °F 85% 30.24 in 10.0 mi Calm Calm - N/A   Scattered Clouds
12:53 PM 35.1 °F - 30.0 °F 82% 30.24 in 10.0 mi Calm Calm - N/A   Overcast
1:53 PM 36.0 °F - 28.9 °F 76% 30.23 in - Calm Calm - N/A   Overcast
2:53 PM 35.1 °F 31.0 °F 27.0 °F 72% 30.24 in - SSE 4.6 mph - N/A   Overcast
3:53 PM 34.0 °F - 28.0 °F 79% 30.25 in 10.0 mi Calm Calm - N/A   Overcast
4:53 PM 33.1 °F - 28.9 °F 85% 30.26 in 10.0 mi Calm Calm - N/A   Overcast
5:53 PM 32.0 °F - 28.9 °F 88% 30.25 in 10.0 mi Calm Calm - N/A   Overcast
6:53 PM 32.0 °F - 28.0 °F 85% 30.26 in 10.0 mi Calm Calm - N/A   Overcast
7:53 PM 32.0 °F - 28.0 °F 85% 30.27 in 10.0 mi Calm Calm - N/A   Overcast
8:53 PM 33.1 °F - 28.0 °F 82% 30.27 in 10.0 mi Calm Calm - N/A   Overcast
9:53 PM 33.1 °F - 28.0 °F 82% 30.28 in 10.0 mi Calm Calm - N/A   Overcast
10:53 PM 33.1 °F - 28.9 °F 85% 30.30 in 10.0 mi Calm Calm - 0.00 in Snow Light Snow
11:53 PM 34.0 °F - 28.9 °F 82% 30.30 in 10.0 mi Calm Calm - 0.00 in   Overcast